Regional Weather Roundup
Issued by NWS Charleston, SC

Current Version | Previous Version | Graphics & Text | Print | Product List | Glossary On
Versions: 1 2 3 4 5 6 7 8 9 10 11 12 13 14 15 16 17 18 19 20 21 22 23 24 25 26 27 28 29 30 31 32 33 34 35 36 37 38 39 40 41 42 43 44 45 46 47 48 49 50
000 ASUS42 KCHS 232125 RWRCHS REGIONAL WEATHER ROUNDUP NATIONAL WEATHER SERVICE CHARLESTON SC 400 PM EST SUN NOV 23 2014 NOTE: "FAIR" INDICATES FEW OR NO CLOUDS BELOW 12,000 FEET WITH NO SIGNIFICANT WEATHER AND/OR OBSTRUCTIONS TO VISIBILITY. NOT ALL STATIONS ARE QUALITY CONTROLLED BY THE NATIONAL WEATHER SERVICE. USE DATA WITH CAUTION...ESPECIALLY DEWPOINT OBSERVATIONS. SCZ027-030-031-034>040-042>050-232200- ...SOUTHEAST SOUTH CAROLINA... CITY SKY/WX TMP DP RH WIND PRES REMARKS N CHARLESTON LGT RAIN 67 65 93 SE15G23 29.91F FOG WATERFRONT PRK N/A 63 N/A N/A SE9 N/A MOUNT PLEASANT CLOUDY 66 66 100 SE10 29.91F VSB 1/2 JOHNS ISLAND LGT RAIN 66 66 100 SE9G21 29.90F PINOPOLIS N/A 66 64 94 SE6G14 29.83F MONCKS CORNER RAIN 68 68 100 SE9 29.90F SUMMERVILLE RAIN 66 66 100 SE8 29.90F BEAUFORT MCAS CLOUDY 67 66 97 SE5 29.87F BEAUFORT ARPT CLOUDY 68 68 100 E7 29.87F HILTON HEAD IS CLOUDY 66 66 100 E5 29.88F FOG WALTERBORO RAIN 68 N/A N/A E10G16 29.89F ALLENDALE CLOUDY 66 66 100 SE9 29.85S ...SOUTHERN MIDLANDS AND PEE DEE... CITY SKY/WX TMP DP RH WIND PRES REMARKS GEORGETOWN NOT AVBL KINGSTREE NOT AVBL ORANGEBURG LGT RAIN 65 63 93 S8 29.89R FOG BARNWELL CLOUDY 64 64 100 SE12 29.85F AIKEN TSTM 63 63 100 SE8 29.86F MANNING NOT AVBL COLUMBIA RAIN 63 62 97 SE13 29.86F FOG SUMTER LGT RAIN 64 63 94 SE13 29.88S FOG FLORENCE LGT RAIN 64 62 93 SE14G23 29.92F MYRTLE BEACH LGT RAIN 64 61 88 SE18 29.95F FOG N MYRTLE BEACH LGT RAIN 64 62 93 SE8 29.95F FOG $$ GAZ063-065-086>088-099>101-113>116-118-119-134>141-150-232200- ...SOUTHEAST GEORGIA... CITY SKY/WX TMP DP RH WIND PRES REMARKS SAVANNAH ARPT RAIN 72 68 88 SE9 29.84F VSB 1 HUNTER AAF CLOUDY 69 69 100 SE7 29.83F FORT STEWART CLOUDY 72 69 92 SE8 29.82F STATESBORO NOT AVBL SYLVANIA CLOUDY 67 66 97 SE8 29.83F FOG CLAXTON CLOUDY 72 72 100 E6 29.82S HAZE ...CSRA...CENTRAL AND FAR SOUTHEAST GEORGIA... CITY SKY/WX TMP DP RH WIND PRES REMARKS THOMSON CLOUDY 64 64 100 SE3 29.84F AUGUSTA-BUSH LGT RAIN 63 62 97 SE9 29.81F FOG AUGUSTA-DANIEL CLOUDY 63 62 97 SE10 29.81F FOG SWAINSBORO DRIZZLE N/A N/A N/A SE8 29.80F VIDALIA TSTM 70 70 100 E6 29.79F VSB 1/2 HAZLEHURST CLOUDY 73 73 100 S6 29.79S ALMA CLOUDY 72 70 93 S7 29.81R WAYCROSS CLOUDY 76 74 95 S10G20 29.81S JESUP RAIN 75 73 94 SE7 29.81F BAXLEY CLOUDY 73 72 94 S6 29.79F BRUNSWICK CLOUDY 70 66 88 SE8 29.85S SAINT SIMONS CLOUDY 65 65 100 SE12 29.84F FOG $$ SCZ027-028-034-036>038-045-046-048>050-GAZ119-141-232200- ...LAKE AND SUPPLEMENTAL COASTAL OBSERVATIONS... STATION/POSITION TIME TEMP WIND PRES WAVE SWELL AIR SEA DIR/SP/G HT/PER HT/PER/DIR (UTC) (F) (DEG/KT/KT) (MB) (FT/S) (FT/S/D) UPR LAKE MARION NOT AVBL WINYAH BAY 2100 63 120/ 7 1014.0S LAKE MURRAY 2100 59 90/ 8/ 12 1010.8F ACE BASIN NERRS 2100 67 130/ 7 1012.0S FORT PULASKI 2100 67 110/ 4/ 5 1011.4S SAPELO ISLAND NOT AVBL $$ ANZ835-935-AMZ111-154-330-350-352-354-370-450-454-472-232200- ...C-MAN AND BUOY OBSERVATIONS... STATION/POSITION TIME TEMP WIND PRES WAVE SWELL AIR SEA DIR/SP/G HT/PER HT/PER/DIR (UTC) (F) (DEG/KT/KT) (MB) (FT/S) (FT/S/D) FOLLY BEACH CMAN 2100 64 100/ 17/ 19 1012.7F BUOY 41004 2100 71 75 100/ 31/ 39 1010.9R 12/ 8 2/13 BUOY 41008 2100 68 64 160/ 10/ 12 1011.3F 6/ 8 5/110/ 8 CAPERS NEARSHORE 2000 63 120/ 16/ 19 N/A FRIPP NEARSHORE NOT AVBL STATION/POSITION TIME TEMP WIND PRES WAVE SWELL AIR SEA DIR/SP/G HT/PER HT/PER/DIR (UTC) (F) (DEG/KT/KT) (MB) (FT/S) (FT/S/D) 5E ST. MARYS GA 2100 61 N/A 6/ 8 2/120/11 FRYING PAN BUOY 2100 68 66 140/ 33/ 41 1013.7F 11/ 7 BUOY 41025 2100 70 160/ 17/ 23 1019.6F 5/ 5 2/190/ 8 CAPE LOOKOUT NC 2100 65 130/ 23/ 26 1017.2F BUOY 41002 2012 72 73 140/ 21/ 25 1020.4F 6/ 6 BUOY 41010 2100 79 78 160/ 19/ 25 1014.1F 9/10 5/130/10 ST AUGUSTINE FL 2100 68 170/ 9/ 10 1012.0S $$

USA.gov is the U.S. government's official web portal to all federal, state and local government web resources and services.